Location: Newark
(34.6283°N, 36.0776°E)
Time: 20:12:48
(UTC+00:00)

Courier 1B Rocket - Pass Details

Date: 19 September 2019
Orbit: 920 x 1202 km, 28.2° (Epoch: 21 October)

Event Time Altitude Azimuth Distance (km) Brightness Sun altitude
Rises 17:48:54 0° 268° (W) 3,744 9.1 -27.1°
Reaches altitude 10° 17:52:00 10° 258° (WSW) 2,747 8.0 -27.7°
Maximum altitude 17:57:32 29° 200° (SSW) 1,673 6.1 -28.8°
Enters shadow 17:57:41 29° 198° (SSW) 1,673 6.1 -28.8°
